This is the latest recevied weather packets stored in our database for station/object KE4ODN. If no packets are shown the sender has not sent any weather packets the latest 10 day(s).
| Time | Temp. | Humidity | Pressure | Rain* | Wind** | Luminosity | Snow |
|---|---|---|---|---|---|---|---|
| 1778005444 | 24.44° C | 60% | 1013.5 hPa | 0 mm | - | 958 W/m² | - |
| 1778004985 | 24.44° C | 59% | 1013.4 hPa | 0 mm | - | 360 W/m² | - |
| 1778002804 | 23.89° C | 60% | 1014.1 hPa | 0 mm | - | 714 W/m² | - |
| 1778002564 | 23.33° C | 62% | 1014 hPa | 0 mm | - | 652 W/m² | - |
| 1778002345 | 23.89° C | 60% | 1014 hPa | 0 mm | - | 338 W/m² | - |
| 1778002084 | 23.89° C | 59% | 1014.1 hPa | 0 mm | - | 735 W/m² | - |
| 1778001844 | 23.89° C | 59% | 1014.1 hPa | 0 mm | - | 691 W/m² | - |
| 1778001364 | 23.33° C | 61% | 1014.1 hPa | 0 mm | - | 884 W/m² | - |
| 1778001145 | 23.33° C | 59% | 1014.1 hPa | 0 mm | - | 879 W/m² | - |
| 1778000644 | 23.33° C | 59% | 1014.3 hPa | 0 mm | - | 353 W/m² | - |
| 1777996804 | 22.78° C | 64% | 1014.5 hPa | 0 mm | - | 893 W/m² | - |
| 1777996564 | 22.78° C | 65% | 1014.4 hPa | 0 mm | - | 926 W/m² | - |
| 1777995865 | 22.22° C | 66% | 1014.6 hPa | 0 mm | - | 937 W/m² | - |
| 1777995124 | 21.67° C | 66% | 1014.5 hPa | 0 mm | - | 777 W/m² | - |
| 1777994905 | 21.67° C | 69% | 1014.6 hPa | 0 mm | - | 698 W/m² | - |
| 1777994404 | 21.11° C | 68% | 1014.8 hPa | 0 mm | - | 717 W/m² | - |
| 1777994164 | 21.67° C | 67% | 1014.7 hPa | 0 mm | - | 633 W/m² | - |
| 1777993204 | 20.56° C | 67% | 1014.8 hPa | 0 mm | - | 606 W/m² | - |
| 1777992745 | 20.56° C | 71% | 1014.8 hPa | 0 mm | - | 622 W/m² | - |
| 1777992004 | 19.44° C | 71% | 1014.9 hPa | 0 mm | - | 598 W/m² | - |
| 1777991524 | 19.44° C | 75% | 1014.7 hPa | 0 mm | - | 135 W/m² | - |
| 1777989364 | 17.22° C | 80% | 1014.9 hPa | 0 mm | - | 72 W/m² | - |
| 1777988884 | 16.67° C | 83% | 1014.7 hPa | 0 mm | - | 137 W/m² | - |
| 1777984564 | 12.22° C | 91% | 1013.7 hPa | 0 mm | - | 67 W/m² | - |
| 1777984324 | 12.22° C | 92% | 1013.8 hPa | 0 mm | - | 35 W/m² | - |
* Rain latest hour (hover to see other rain measurements)
** Current wind speed in m/s (hover to see current wind gust speed)